Preview of NWS' New Version of Forecast
This preview is not operational and should not be used for support decisions.

Regional Weather Roundup (RWR)

Issued by National Weather Service (NWS)

                            
000
ASUS44 KJAN 181110
RWRMS 

MISSISSIPPI HOURLY WEATHER ROUNDUP
NATIONAL WEATHER SERVICE JACKSON MS
600 AM CDT TUE JUN 18 2019

NOTE: "FAIR: INDICATES FEW OR NO CLOUDS BELOW 12,000 FEET WITH NO
SIGNIFICANT WEATHER AND/OR OBSTRUCTIONS TO VISIBILITY.

MSZ001>002-007>008-010>013-018>021-025>028-034>036-181200-
NORTHWEST MISSISSIPPI
  
CITY           SKY/WX    TMP DP  RH WIND       PRES   REMARKS
BATESVILLE     CLOUDY    70  68  94 CALM      29.92R                  
CLARKSDALE     CLOUDY    72  72 100 CALM      29.91F                  
CLEVELAND      PTSUNNY   72  72 100 S3        29.90F                  
GREENWOOD      CLOUDY    73  71  93 CALM      29.92R                  
GREENVILLE     LGT RAIN  74  72  93 S6        29.89F                  
OLIVE BRANCH   CLOUDY    70 N/A N/A CALM      29.92S                  
OXFORD         CLOUDY    68  68 100 SE5       29.95R                  
TUNICA           N/A     70  70 100 S3        29.92S                  
WINONA         LGT RAIN  70  70 100 CALM      29.93S                  
$$

MSZ003>006-009-014>017-022>024-029>033-037>039-181200-
NORTHEAST MISSISSIPPI
  
CITY           SKY/WX    TMP DP  RH WIND       PRES   REMARKS
ABERDEEN       CLOUDY    70  68  94 CALM      29.95F                  
COLUMBUS AFB   MOCLDY    73  68  83 CALM      29.95                   
CORINTH        CLOUDY    72  70  94 S5        29.95R FOG              
GOLDN TRIANGLE MOCLDY    73  72  96 SE7       29.94F                  
STARKVILLE     PTSUNNY   70  70 100 CALM      29.95S                  
TUPELO         MOCLDY    72  69  90 E5        29.94F                  
$$

MSZ040-058-181200-
CENTRAL MISSISSIPPI
  
CITY           SKY/WX    TMP DP  RH WIND       PRES   REMARKS
JACKSON INTL   LGT RAIN  73  71  93 S3        29.93S FOG              
JACKSON HAWKNS CLOUDY    74  73  97 S5        29.93S                  
MADISON        PTSUNNY   72  72 100 CALM      29.93S                  
MERIDIAN KEY   CLOUDY    75  71  87 CALM      29.95S                  
MERIDIAN NAS   RAIN      73  71  93 SW6       29.97R FOG              
RAYMOND        CLOUDY    73  73 100 CALM      29.92S                  
VICKSBURG VKS  CLOUDY    73  73 100 S5        29.93R                  
$$

MSZ059>079-181200-
SOUTH MISSISSIPPI
  
CITY           SKY/WX    TMP DP  RH WIND       PRES   REMARKS
BROOKHAVEN     CLOUDY    72  72 100 CALM      29.95R                  
HATTIESBURG    LGT RAIN  73  71  93 CALM      29.96R                  
LAUREL         CLOUDY    73  72  95 SE5       29.94S                  
MCCOMB         CLOUDY    73  71  93 S3        29.94R                  
NATCHEZ        CLOUDY    73  72  96 CALM      29.94R                  
PINE BELT      HVY RAIN  73  73 100 S7        29.97R FOG              
$$

MSZ080>082-181200-
COASTAL MISSISSIPPI
  
CITY           SKY/WX    TMP DP  RH WIND       PRES   REMARKS
BILOXI         MOCLDY    79  73  83 VRB6      29.93                   
PASCAGOULA     FAIR      75  72  90 CALM      29.94S                  
GULFPORT       FAIR      79  74  84 S6        29.92S                  
$$

LAZ007>009-015>016-023>026-181200-
NORTHEAST LOUISIANA
  
CITY           SKY/WX    TMP DP  RH WIND       PRES   REMARKS
BASTROP        FAIR      71  71  98 CALM      29.91S                  
TALLULAH/VBURG MOCLDY    73  72  96 CALM      29.92R                  
VIDALIA        PTSUNNY   73  72  96 S3        29.92S                  
$$